カタログに戻る

STARLINK-36382

運用中通信SSO
NORAD 67807·PAYLOAD·🇺🇸 United States

打ち上げ Feb 15, 2026 から Vandenberg Space Force Base

Loading…

次のパス (今後24時間)

TLE

最新Source: CelesTrak SupGP

元期: Sep 15, 2026, 04:01 UTC

1 67807C 26032L   26258.16784722 -.00059904  00000+0 -18596-2 0  2588
2 67807  97.2855  84.6320 0001754  89.7607  29.7420 15.33468751    11

AllMySatでSTARLINK-36382をリアルタイム追跡

Download on the App Store